www.pogodaiklimat.ru
Время
и дата
04:53 30.12
04:57 30.12
05:53 30.12
06:27 30.12
06:53 30.12
07:22 30.12
07:53 30.12
08:53 30.12
09:53 30.12
10:26 30.12
10:36 30.12
10:53 30.12
11:53 30.12
12:25 30.12
12:53 30.12
13:53 30.12
14:53 30.12
15:53 30.12
16:38 30.12
16:53 30.12
17:29 30.12
17:53 30.12
18:18 30.12
18:53 30.12
19:53 30.12
20:23 30.12
20:53 30.12
21:53 30.12
22:53 30.12
23:53 30.12
00:53 31.12
01:47 31.12
01:53 31.12
02:53 31.12
03:53 31.12
04:53 31.12
05:53 31.12
06:53 31.12
07:53 31.12
08:35 31.12
08:42 31.12
08:53 31.12
09:53 31.12
10:53 31.12
11:53 31.12
12:53 31.12
13:53 31.12
14:53 31.12
Ветер
(напр.,м/с)
Видим. Явления Облачность Т
(С)
Тd
(С)
f
(%)
Тe
(С)
Тes
(С)
Комфортность P
(гПа)
Po
(гПа)
Тmin
(С)
Tmax
(С)
R
(мм)
R24
(мм)
S
(см)
В 1 2 км слабый снег, дымка 10/10 540 м -12.2 -14.4 84 -17 -17 1006.6 919.2
В 1 3 км слабый снег, дымка 10/10 540 м -12.2 -14.4 84 -17 -17 919.2
СВ 1 8 км слабый снег, дымка 10/10 450 м -12.2 -13.9 87 -17 -17 1007.0 919.5
СВ 1 8 км слабый снег, дымка 10/10 180 м -12.2 -14.4 84 -18 -18 919.5
В 2 8 км слабый снег, дымка 10/10 180 м -12.2 -13.9 87 -19 -19 1006.7 919.2
В 1 10 км слабый снег, дымка 10/10 120 м -12.2 -13.9 87 -18 -18 919.2
В 1 10 км слабый снег, дымка 10/10 120 м -11.7 -13.3 88 -16 -16 1006.0 918.9
СВ 1 10 км слабый снег, дымка 10/10 330 м -11.7 -13.3 88 -18 -18 1006.7 919.5
СВ 2 8 км дымка 10/10 270 м -11.1 -12.8 87 -18 -18 1006.7 919.5 -12.2 -11.1
СВ 2 3 км слабый снег, дымка 10/10 270 м -11.1 -13.3 84 -18 -18 919.5
С 2 2 км слабый снег, дымка 10/10 270 м -11.1 -13.3 84 -18 -18 919.2
СВ 2 2 км слабый снег, дымка 10/10 270 м -11.1 -13.3 84 -19 -19 1006.2 918.9
СВ 3 2 км слабый снег, дымка 10/10 270 м -11.1 -13.3 84 -20 -20 1005.5 918.3
СВ 3 2 км слабый снег, дымка 10/10 270 м -10.6 -13.3 80 -19 -19 918.0
СВ 2 2 км слабый снег, дымка 10/10 270 м -10.6 -12.8 84 -18 -18 1005.0 918.0 0.3
СВ 2 2 км слабый снег, дымка 10/10 690 м -10.6 -12.8 84 -18 -18 1004.5 917.7
С 2 2 км слабый снег, дымка 10/10 750 м -10.0 -12.8 80 -17 -17 1004.8 918.0
С 2 2 км слабый снег, дымка 10/10 720 м -10.0 -12.8 80 -17 -17 1005.1 918.0 -11.1 -10.0 1.0
С 2 8 км слабый снег, дымка 10/10 960 м -10.6 -12.8 84 -18 -18 918.3
С 2 8 км слабый снег, дымка 10/10 960 м -10.6 -12.8 84 -18 -18 1005.5 918.3
С 2 3 км слабый снег, дымка 10/10 60 м -10.6 -12.8 84 -18 -18 918.6
С 2 4 км слабый снег, дымка 10/10 90 м -10.6 -12.8 84 -18 -18 1005.8 918.6
С 1 5 км слабый снег, дымка 10/8 90 м
[Ac]
-10.6 -12.8 84 -17 -17 918.9
СВ 1 5 км слабый снег, дымка 10/10 90 м -10.0 -13.3 77 -16 -16 1005.9 918.9
С 1 5 км слабый снег, дымка 10/8 1650 м
[Ac]
-10.6 -12.8 84 -17 -17 1006.2 918.9
С 1 10 км дымка 10/10 1650 м -10.6 -12.8 84 -15 -15 919.2
С 1 13 км 10/8 1650 м
[Ac]
-10.6 -13.3 80 -17 -17 1006.5 919.2
С 1 16 км 10/2 1650 м
[Ac]
-11.1 -13.9 80 -16 -16 1006.6 919.5 -11.1 -10.0
С 1 16 км 10/0 2250 м
[Ac]
-11.7 -13.9 84 -16 -16 1006.9 919.8
штиль 0 16 км 10/2 1650 м
[Ac]
-12.2 -15.0 80 -12 -12 1007.7 920.2
СЗ 1 16 км слабый снег 10/10 1800 м -11.7 -15.0 76 -18 -18 1007.8 920.5
З 1 14 км 10/10 1650 м -12.0 -15.0 78 -17 -17 920.8
З 1 16 км 10/10 1650 м -11.7 -15.0 76 -16 -16 1008.3 921.1
СЗ 1 16 км 10/2 1200 м
[Ac]
-12.2 -15.6 76 -17 -17 1008.7 921.4
С 1 16 км 10/2 570 м
[Ac]
-12.2 -15.6 76 -17 -17 1009.4 922.0 -12.2 -11.1 1.0
С 1 16 км 10/2 300 м
[Ac]
-11.7 -15.6 73 -16 -16 1009.9 922.3
С 1 16 км 10/2 1050 м
[Ac]
-11.7 -16.1 70 -18 -18 1010.4 923.0
С 2 14 км 10/2 1050 м
[Ac]
-12.2 -15.6 76 -19 -19 1011.5 923.9
С 1 6 км дымка 5/5 600 м
[Ac]
-12.2 -15.0 80 -17 -17 1012.4 924.5
СЗ 1 5 км слабый снег, дымка 8/5 600 м
[Ac]
-12.8 -15.6 79 -17 -17 925.4
С 1 10 км дымка 5/5 600 м
[Ac]
-12.8 -15.6 79 -17 -17 925.7
С 1 11 км 5/5 750 м
[Ac]
-12.2 -15.6 76 -17 -17 1013.9 926.1
штиль 0 16 км 5/5 450 м -10.6 -15.0 70 -11 -10 1014.5 926.7 -12.8 -10.6
С 1 16 км 5/5 540 м -10.0 -14.4 70 -16 -15 1015.2 927.3
С 2 16 км 2/2 660 м -9.4 -15.0 64 -16 -15 1015.3 927.3
С 1 16 км 2/2 750 м -9.4 -15.0 64 -15 -13 1015.6 927.6
штиль 0 16 км 5/5 750 м -8.3 -14.4 61 -9 -7 1016.4 928.5
З 1 16 км 5/5 750 м -9.4 -13.3 73 -15 -15 1017.8 929.5
Местоположение метеостанции Spokane International Airport: широта 47.6214 долгота -117.5278 высота над уровнем моря 723 м.
В архиве по умолчанию представлена погода в Спокане за последние 1-2 суток. Обновление информации о фактической погоде в базе происходит ежечасно! Архивные данные за месяц целиком и за предыдущие месяцы Вы можете получить, выбрав интересующий диапазон дат из раскрывающегося списка и нажав кнопку "Ввод!".
Внимание! Архив погоды МЕТАР в базе сайта по станциям, не включенным в климатический монитор, хранится не более 60 дней. Нет смысла пытаться выбрать более раннюю дату.
*Определитесь, кто Вы:
Внимание! Время в таблицах - местное (без учета летнего времени). Для получения всемирного времени необходимо вычесть поправку, которая равна -8 ч.
Смотрите также архив погоды в соседних городах и на ближайших метеорологических станциях:
Партнеры нашего сайта:      
Пояснения к столбцам:
  • Ветер - указаны скорость ветра в м/с - средняя за 10 мин, порывы в срок и между сроками (в фигурных скобках) и направление, откуда дует ветер: С - северный,
  • СВ - северо-восточный, В - восточный, ЮВ - юго-восточный, Ю - южный, ЮЗ - юго-западный, З - западный, СЗ - северо-западный.
  • Видимость - горизонтальная дальность видимости в метрах или километрах. При видимости от 1 до 10 км при отсутствии осадков обычно наблюдается дымка, при ухудшении видимости до 1 км и менее - туман. В сухую погоду видимость может ухудшаться дымом, пылью или мглою.
  • Явления - указаны атмосферные явления, наблюдавшиеся в срок или в последний час перед сроком; фигурными скобками обозначены явления, наблюдавшиеся между сроками (за 1-3 часа до срока); квадратными скобками обозначены град или гололедные отложения с указанием их диаметра в мм.
  • Облачность - указаны через наклонную черту общая и нижняя облачность в баллах и высота нижней границы облаков в метрах; квадратными скобками обозначены формы облаков: Ci - перистые, Cs - перисто-слоистые, Cc - перисто-кучевые, Ac - высококучевые, As - высокослоистые, Sc - слоисто-кучевые, Ns - слоисто-дождевые, Cu - кучевые, Cb - кучево-дождевые. Подробнее классификацию облаков см. в Атласе облаков (PDF).
  • T - Температура воздуха - температура, измеренная на высоте 2 м над землей.
  • Td - Температура точки росы - температура, при понижении до которой содержащийся в воздухе водяной пар достигнет насыщения.
  • f - Относительная влажность воздуха - влажноcть воздуха, измеренная на высоте 2 м над землей.
  • Te - Эффективная температура - температура, которую ощущает одетый по сезону человек в тени. Характеристика душности погоды. При расчете учитывается влияние влажности воздуха и скорости ветра на теплоощущения человека.
  • Tes - Эффективная температура на солнце - температура, которую ощущает человек, с поправкой на солнечный нагрев. Характеристика знойности погоды. Зависит от высоты солнца над горизонтом, облачности и скорости ветра. Ночью, в пасмурную погоду, а также при ветре 12 м/с и более поправка равна нулю.
  • P - Атмосферное давление - приведенное к уровню моря атмосферное давление.
  • Po - Атмосферное давление - измеренное на уровне метеостанции атмосферное давление.
  • Tmin - Минимальная температура - минимум температуры воздуха на высоте 2 м над землей.
  • Tmax - Максимальная температура - максимум температуры воздуха на высоте 2 м над землей.
  • R - Количество осадков - Количество выпавших осадков за период времени, мм. При наведении курсора мыши на число - период времени, за который выпало указанное количество осадков.
  • R24 - Количество осадков - Количество выпавших осадков за 24 часа, мм.
  • S - Снежный покров - Высота снежного покрова, см. При наведении курсора мыши на число - состояние снежного покрова и степень покрытия местности в баллах.